Location: Braunsdorf
(50.7357°N, 11.9136°E)
Time: 08:52:07
(UTC+00:00)

Meteor 2-10 Rocket - Pass Details

Date: 17 February 2020
Orbit: 734 x 884 km, 81.2° (Epoch: 04 April)

Event Time Altitude Azimuth Distance (km) Brightness Sun altitude
Exits shadow 04:27:18 29° 233° (SW) 1,440 4.4 -18.7°
Maximum altitude 04:29:39 46° 289° (WNW) 1,049 3.8 -18.4°
Drops below altitude 10° 04:34:39 10° 3° (N) 2,311 6.0 -17.6°
Sets 04:37:04 0° 9° (N) 3,223 6.9 -17.2°
